This is the latest recevied weather packets stored in our database for station/object SQ5OUZ-1. If no packets are shown the sender has not sent any weather packets the latest 1 day(s).
| Time | Temp. | Humidity | Pressure | Rain* | Wind** | Luminosity | Snow |
|---|---|---|---|---|---|---|---|
| 1777989465 | 27.78° C | 17% | 1008.5 hPa | - | 0 m/s | - | - |
| 1777988561 | 27.78° C | 16% | 1008.6 hPa | - | 0 m/s | - | - |
| 1777987658 | 27.78° C | 16% | 1008.6 hPa | - | 0 m/s | - | - |
| 1777986755 | 27.78° C | 16% | 1008.9 hPa | - | 0 m/s | - | - |
| 1777985852 | 27.78° C | 17% | 1008.9 hPa | - | 0 m/s | - | - |
| 1777984948 | 27.78° C | 19% | 1009 hPa | - | 0 m/s | - | - |
| 1777984045 | 27.22° C | 18% | 1009.1 hPa | - | 0 m/s | - | - |
| 1777983142 | 27.78° C | 18% | 1009.3 hPa | - | 0 m/s | - | - |
| 1777982239 | 27.78° C | 17% | 1009.5 hPa | - | 0 m/s | - | - |
| 1777981335 | 27.78° C | 17% | 1009.5 hPa | - | 0 m/s | - | - |
| 1777980432 | 27.78° C | 18% | 1009.7 hPa | - | 0 m/s | - | - |
| 1777979529 | 27.78° C | 16% | 1009.6 hPa | - | 0 m/s | - | - |
| 1777978626 | 28.33° C | 16% | 1009.9 hPa | - | 0 m/s | - | - |
| 1777977723 | 28.33° C | 17% | 1010.1 hPa | - | 0 m/s | - | - |
| 1777976819 | 29.44° C | 17% | 1010.2 hPa | - | 0 m/s | - | - |
| 1777975916 | 28.89° C | 17% | 1010.3 hPa | - | 0 m/s | - | - |
| 1777975013 | 30° C | 16% | 1010.4 hPa | - | 0 m/s | - | - |
| 1777974109 | 31.11° C | 17% | 1010.5 hPa | - | 0 m/s | - | - |
| 1777973206 | 31.67° C | 17% | 1010.6 hPa | - | 0 m/s | - | - |
| 1777972303 | 32.78° C | 16% | 1010.8 hPa | - | 0 m/s | - | - |
| 1777971400 | 32.78° C | 16% | 1010.9 hPa | - | 0 m/s | - | - |
| 1777970496 | 32.78° C | 15% | 1011 hPa | - | 0 m/s | - | - |
| 1777969593 | 32.78° C | 15% | 1011.2 hPa | - | 0 m/s | - | - |
| 1777968697 | 32.78° C | 15% | 1011.3 hPa | - | 0 m/s | - | - |
| 1777967786 | 32.78° C | 15% | 1011.3 hPa | - | 0 m/s | - | - |
* Rain since midnight (hover to see other rain measurements)
** Current wind speed in m/s (hover to see current wind gust speed)